• în România
  • Lista ţărilor
  • Pe 7 zile
  • Temperatura apei
  • Hartă satelitară
  • Meteo pe hartă
  • Widget-uri
  • user-avatar
    Intrare

    Meteo pe oră la Bucureşti

    Astăzi, 19 Ianuarie, Joi

    Timp Temperatura Precipitaţii Vânt Presiune Umiditate
    00:00 -10°C° 0 mm 6 m/s 769 mmHg 90%
    01:00 -10°C° 0 mm 6 m/s 769 mmHg 90%
    02:00 -10°C° 0 mm 6 m/s 769 mmHg 90%
    03:00 -10°C° 0 mm 6 m/s 769 mmHg 90%
    04:00 -10°C° 0 mm 6 m/s 769 mmHg 91%
    05:00 -10°C° 0 mm 6 m/s 769 mmHg 91%
    06:00 -11°C° 0 mm 6 m/s 770 mmHg 91%
    07:00 -11°C° 0 mm 6 m/s 770 mmHg 91%
    08:00 -11°C° 0 mm 6 m/s 770 mmHg 90%
    09:00 -10°C° 0 mm 6 m/s 770 mmHg 89%
    10:00 -10°C° 0 mm 6 m/s 770 mmHg 88%
    11:00 -9°C° 0 mm 6 m/s 770 mmHg 87%
    12:00 -9°C° 0 mm 6 m/s 770 mmHg 87%
    13:00 -8°C° 0 mm 6 m/s 770 mmHg 87%
    14:00 -7°C° 0 mm 5 m/s 770 mmHg 86%
    15:00 -7°C° 0 mm 4 m/s 770 mmHg 88%
    16:00 -8°C° 0 mm 4 m/s 770 mmHg 90%
    17:00 -8°C° 0 mm 3 m/s 770 mmHg 92%
    18:00 -8°C° 0 mm 3 m/s 770 mmHg 93%
    19:00 -9°C° 0 mm 3 m/s 770 mmHg 94%
    20:00 -10°C° 0 mm 3 m/s 771 mmHg 95%
    21:00 -9°C° 0 mm 2 m/s 771 mmHg 95%
    22:00 -10°C° 0 mm 2 m/s 771 mmHg 95%
    23:00 -10°C° 0 mm 2 m/s 771 mmHg 96%

    Mâine, 20 Ianuarie, Vineri

    Timp Temperatura Precipitaţii Vânt Presiune Umiditate
    00:00 -12°C° 0 mm 2 m/s 771 mmHg 96%
    01:00 -11°C° 0 mm 1 m/s 771 mmHg 97%
    02:00 -11°C° 0 mm 1 m/s 771 mmHg 97%
    03:00 -12°C° 0 mm 1 m/s 771 mmHg 97%
    04:00 -12°C° 0 mm 1 m/s 771 mmHg 97%
    05:00 -13°C° 0 mm 1 m/s 770 mmHg 98%
    06:00 -12°C° 0 mm 1 m/s 770 mmHg 97%
    07:00 -12°C° 0 mm 1 m/s 770 mmHg 96%
    08:00 -11°C° 0 mm 1 m/s 770 mmHg 96%
    09:00 -12°C° 0 mm 2 m/s 771 mmHg 94%
    10:00 -9°C° 0 mm 2 m/s 771 mmHg 91%
    11:00 -7°C° 0 mm 2 m/s 771 mmHg 89%
    12:00 -7°C° 0 mm 2 m/s 770 mmHg 89%
    13:00 -6°C° 0 mm 2 m/s 770 mmHg 89%
    14:00 -5°C° 0 mm 2 m/s 769 mmHg 88%
    15:00 -7°C° 0 mm 3 m/s 769 mmHg 90%
    16:00 -8°C° 0 mm 3 m/s 769 mmHg 92%
    17:00 -9°C° 0 mm 3 m/s 769 mmHg 95%
    18:00 -10°C° 0 mm 3 m/s 769 mmHg 94%
    19:00 -10°C° 0 mm 3 m/s 769 mmHg 94%
    20:00 -12°C° 0 mm 3 m/s 769 mmHg 94%
    21:00 -12°C° 0 mm 3 m/s 769 mmHg 94%
    22:00 -12°C° 0 mm 3 m/s 769 mmHg 94%
    23:00 -12°C° 0 mm 3 m/s 769 mmHg 93%

    Poimâine, 21 Ianuarie, Sâmbătă

    Timp Temperatura Precipitaţii Vânt Presiune Umiditate
    00:00 -12°C° 0 mm 3 m/s 769 mmHg 93%
    01:00 -12°C° 0 mm 3 m/s 768 mmHg 92%
    02:00 -12°C° 0 mm 3 m/s 768 mmHg 92%
    03:00 -12°C° 0 mm 3 m/s 768 mmHg 92%
    04:00 -12°C° 0 mm 3 m/s 767 mmHg 92%
    05:00 -12°C° 0 mm 3 m/s 767 mmHg 91%
    06:00 -12°C° 0 mm 3 m/s 767 mmHg 91%
    07:00 -12°C° 0 mm 3 m/s 767 mmHg 91%
    08:00 -12°C° 0 mm 3 m/s 767 mmHg 90%
    09:00 -9°C° 0 mm 3 m/s 767 mmHg 89%
    10:00 -8°C° 0 mm 3 m/s 767 mmHg 87%
    11:00 -6°C° 0 mm 3 m/s 767 mmHg 86%
    12:00 -5°C° 0 mm 3 m/s 767 mmHg 86%
    13:00 -5°C° 0 mm 3 m/s 766 mmHg 87%
    14:00 -4°C° 0 mm 3 m/s 766 mmHg 87%
    15:00 -5°C° 0 mm 3 m/s 766 mmHg 89%
    16:00 -6°C° 0 mm 3 m/s 766 mmHg 91%
    17:00 -6°C° 0 mm 2 m/s 766 mmHg 93%
    18:00 -6°C° 0 mm 2 m/s 766 mmHg 92%
    19:00 -6°C° 0 mm 2 m/s 767 mmHg 91%
    20:00 -7°C° 0 mm 2 m/s 767 mmHg 90%
    21:00 -7°C° 0 mm 2 m/s 767 mmHg 89%
    22:00 -7°C° 0 mm 2 m/s 768 mmHg 88%
    23:00 -7°C° 0 mm 2 m/s 768 mmHg 87%

    22 Ianuarie, Duminică

    Timp Temperatura Precipitaţii Vânt Presiune Umiditate
    00:00 -7°C° 0 mm 2 m/s 768 mmHg 87%
    01:00 -8°C° 0 mm 2 m/s 768 mmHg 87%
    02:00 -7°C° 0 mm 1 m/s 768 mmHg 86%
    03:00 -7°C° 0 mm 1 m/s 768 mmHg 86%
    04:00 -8°C° 0 mm 1 m/s 769 mmHg 86%
    05:00 -8°C° 0 mm 1 m/s 769 mmHg 86%
    06:00 -8°C° 0 mm 1 m/s 769 mmHg 86%
    07:00 -8°C° 0 mm 1 m/s 769 mmHg 86%
    08:00 -8°C° 0 mm 1 m/s 770 mmHg 87%
    09:00 -6°C° 0 mm 0 m/s 770 mmHg 83%
    10:00 -3°C° 0 mm 0 m/s 770 mmHg 80%
    11:00 0°C° 0 mm 0 m/s 771 mmHg 76%
    12:00 0°C° 0 mm 0 m/s 771 mmHg 81%
    13:00 0°C° 0 mm 0 m/s 770 mmHg 85%
    14:00 +2°C° 0 mm 1 m/s 770 mmHg 89%
    15:00 0°C° 0 mm 1 m/s 770 mmHg 90%
    16:00 -1°C° 0 mm 1 m/s 770 mmHg 91%
    17:00 -3°C° 0 mm 1 m/s 770 mmHg 91%
    18:00 -4°C° 0 mm 2 m/s 771 mmHg 93%
    19:00 -3°C° 0 mm 2 m/s 771 mmHg 94%
    20:00 -2°C° 0 mm 2 m/s 771 mmHg 95%
    21:00 -2°C° 0 mm 2 m/s 771 mmHg 95%
    22:00 -2°C° 0 mm 2 m/s 771 mmHg 96%
    23:00 -2°C° 0 mm 2 m/s 771 mmHg 96%

    23 Ianuarie, Luni

    Timp Temperatura Precipitaţii Vânt Presiune Umiditate
    00:00 -2°C° 0 mm 2 m/s 771 mmHg 96%
    01:00 -2°C° 0 mm 2 m/s 771 mmHg 96%
    02:00 -2°C° 0 mm 2 m/s 770 mmHg 95%
    03:00 -2°C° 0 mm 2 m/s 770 mmHg 95%
    04:00 -3°C° 0 mm 2 m/s 770 mmHg 95%
    05:00 -3°C° 0 mm 2 m/s 769 mmHg 95%
    06:00 -4°C° 0 mm 2 m/s 769 mmHg 95%
    07:00 -4°C° 0 mm 2 m/s 769 mmHg 95%
    08:00 -5°C° 0 mm 2 m/s 769 mmHg 95%
    09:00 -4°C° 0 mm 2 m/s 768 mmHg 94%
    10:00 -3°C° 0 mm 2 m/s 768 mmHg 93%
    11:00 -1°C° 0 mm 2 m/s 768 mmHg 92%
    12:00 -1°C° 0 mm 2 m/s 767 mmHg 93%
    13:00 -1°C° 0 mm 2 m/s 766 mmHg 94%
    14:00 +1°C° 0 mm 2 m/s 766 mmHg 95%
    15:00 -1°C° 0 mm 2 m/s 765 mmHg 96%
    16:00 -1°C° 0 mm 2 m/s 765 mmHg 97%
    17:00 -2°C° 0 mm 2 m/s 765 mmHg 97%
    18:00 0°C° 0 mm 1 m/s 764 mmHg 97%
    19:00 0°C° 0 mm 1 m/s 764 mmHg 97%
    20:00 0°C° 0 mm 1 m/s 764 mmHg 97%
    21:00 0°C° 0 mm 1 m/s 763 mmHg 97%
    22:00 -1°C° 0 mm 1 m/s 763 mmHg 96%
    23:00 -1°C° 0 mm 1 m/s 763 mmHg 96%

    24 Ianuarie, Marţi

    Timp Temperatura Precipitaţii Vânt Presiune Umiditate
    00:00 -1°C° 0 mm 1 m/s 762 mmHg 96%
    01:00 -1°C° 0 mm 1 m/s 761 mmHg 96%
    02:00 -1°C° 0 mm 1 m/s 761 mmHg 96%
    03:00 -1°C° 0 mm 1 m/s 760 mmHg 96%
    04:00 -1°C° 0 mm 1 m/s 760 mmHg 95%
    05:00 -3°C° 0 mm 2 m/s 759 mmHg 95%
    06:00 -3°C° 0 mm 2 m/s 759 mmHg 95%
    07:00 -4°C° 0 mm 2 m/s 759 mmHg 95%
    08:00 -4°C° 0 mm 2 m/s 758 mmHg 95%
    09:00 -3°C° 0 mm 2 m/s 758 mmHg 93%
    10:00 -2°C° 0 mm 2 m/s 758 mmHg 92%
    11:00 +1°C° 0 mm 1 m/s 758 mmHg 90%
    12:00 +1°C° 0 mm 1 m/s 758 mmHg 91%
    13:00 +1°C° 0 mm 1 m/s 757 mmHg 91%
    14:00 +1°C° 0 mm 0 m/s 757 mmHg 91%
    15:00 +1°C° 0 mm 1 m/s 757 mmHg 93%
    16:00 0°C° 0 mm 1 m/s 757 mmHg 95%
    17:00 -1°C° 0 mm 1 m/s 757 mmHg 96%
    18:00 -1°C° 0 mm 1 m/s 757 mmHg 96%
    19:00 -3°C° 0 mm 2 m/s 758 mmHg 96%
    20:00 -3°C° 0 mm 2 m/s 758 mmHg 96%
    21:00 -3°C° 0 mm 2 m/s 758 mmHg 95%
    22:00 -3°C° 0 mm 2 m/s 758 mmHg 95%
    23:00 -4°C° 0 mm 3 m/s 758 mmHg 95%
    Arată mai mult